Airfield :
LOGIN :

Register | Disclaimer

   EN    FR    IT 

 










Legend :    VFR   Marginal VFR   IFR   Intensive IFR   Very Intensive IFR
Visi :
Ceiling :
>= 8 km
>= 3000ft
5 to 8 km
1000 to 3000 ft
1500m to 5 km
500 to 1000 ft
800 to 1500m
200 to 500 ft
< 800m
< 200 ft
Symbols :   Thunderstorms  Fog  Heavy snow  Heavy precipitations  Wind > 20 kt
SIGMETs :     Misc.  Thunderstorms  Icing  Turbulence  Mountain Waves  Volcanic Ashes







- Airport Elevation : 479 ft
- IATA code : DOL
- Download approach charts


LFRG - Deauville

CURRENT METAR :
  • 231130Z AUTO 08004KT 360V140 CAVOK 20/07 Q1029 NOSIG

EXPIRED METARs :
  • 231100Z AUTO 11006KT 070V180 CAVOK 20/05 Q1029 BECMG 34010KT
  • 231030Z AUTO 11006KT 060V170 9999 4400 NSC 20/04 Q1030 BECMG 34010KT
  • 231000Z AUTO 10005KT 040V160 CAVOK 19/04 Q1030 NOSIG
  • 230930Z AUTO 12006KT 060V170 CAVOK 19/05 Q1030 NOSIG
  • 230900Z AUTO 09005KT 020V170 CAVOK 18/03 Q1030 NOSIG

TAF TAF LFRG
Valid from the 23 at 12:00 until the 23 at 21:00 UTC


231100Z 2312/2321 VRB05KT CAVOK
BECMG 2312/2314 34010KT
BECMG 2319/2321 VRB03KT
ATIS : +33 2 31 65 65 36
No reported NOTAMs for that airfield.



MET'MAP, your aeronautical weather chart ! - Copyright ORBIFLY December 2007 - Disclaimer

ORBIFLY MET'MAP TEAM :

Programming & Development : Alexandra Zaïnal
Concept & Development : Baudouin d'Aumeries
Co-Development & Prog : Marc-Olivier Méhu
Technical & hardware support : Manuel Goepfert

Contact : metmap@orbifly.com




SOURCES & CREDITS :

   NOAA